Flag for Australia

Past Weather in 21°56'25"S, 114°07'50"E, Australia — Yesterday and Last 2 Weeks

Currently: 68 °F. Sunny. (Weather station: Learmonth Airport, Australia). See more current weather

Past Weather in 21°56'25"S, 114°07'50"E — Graph

°F

21°56'25"S, 114°07'50"E Temperature Yesterday

Maximum temperature yesterday: 90 °F (at 3:00 pm)
Minimum temperature yesterday: 64 °F (at 6:30 am)
Average temperature yesterday: 78 °F

High & Low Weather Summary for the Past Weeks

 TemperatureHumidityPressure
High99 °F (Apr 9, 3:30 pm)100% (Apr 11, 7:00 am)30.07 "Hg (Apr 11, 7:00 am)
Low63 °F (Apr 22, 4:30 am)14% (Apr 9, 2:00 pm)29.80 "Hg (Apr 9, 3:30 pm)
Average79 °F59%29.94 "Hg
* Reported Apr 9 7:00 am — Apr 24 7:00 am, 21°56'25"S, 114°07'50"E. Weather by CustomWeather, © 2024

Note: Actual official high and low records may vary slightly from our data, if they occured in-between our weather recording intervals... More about our weather records

21°56'25"S, 114°07'50"E Weather History for the Previous 24 Hours

Scroll right to see more
 ConditionsComfort  
Time TempWeatherWind HumidityBarometerVisibility
7:00 am
Wed, Apr 24
68 °FSunny.6 mph88%29.95 "HgN/A
6:30 am72 °FClear.2 mph83%29.92 "HgN/A
6:00 am72 °FClear.No wind83%29.92 "HgN/A
5:30 am72 °FClear.1 mph83%29.92 "HgN/A
5:00 am72 °FClear.5 mph83%29.92 "HgN/A
4:30 am73 °FClear.3 mph78%29.92 "HgN/A
4:00 am73 °FClear.3 mph78%29.89 "HgN/A
3:00 am73 °FClear.6 mph78%29.89 "HgN/A
2:00 am75 °FClear.6 mph69%29.92 "HgN/A
1:30 am75 °FClear.5 mph69%29.92 "HgN/A
1:00 am77 °FClear.6 mph65%29.92 "HgN/A
12:30 am79 °FClear.7 mph61%29.92 "HgN/A
12:00 am77 °FClear.8 mph69%29.92 "HgN/A
11:30 pm
Tue, Apr 23
79 °FClear.7 mph70%29.95 "HgN/A
11:00 pm79 °FClear.3 mph70%29.95 "HgN/A
10:30 pm79 °FClear.8 mph70%29.95 "HgN/A
9:30 pm77 °FClear.9 mph65%29.95 "HgN/A
9:00 pm77 °FClear.6 mph57%29.95 "HgN/A
8:30 pm79 °FClear.6 mph51%29.92 "HgN/A
8:00 pm79 °FClear.5 mph48%29.92 "HgN/A
7:30 pm81 °FClear.6 mph45%29.92 "HgN/A
7:00 pm82 °FClear.6 mph42%29.92 "HgN/A
6:30 pm82 °FClear.7 mph48%29.89 "HgN/A
6:00 pm84 °FSunny.12 mph55%29.89 "HgN/A
5:30 pm84 °FSunny.12 mph58%29.89 "HgN/A
5:00 pm84 °FSunny.12 mph48%29.89 "HgN/A
4:30 pm86 °FSunny.13 mph46%29.86 "HgN/A
4:00 pm90 °FSunny.13 mph43%29.86 "HgN/A
3:30 pm90 °FSunny.10 mph43%29.89 "HgN/A
3:00 pm90 °FSunny.12 mph49%29.86 "HgN/A
2:30 pm88 °FSunny.12 mph52%29.86 "HgN/A
2:00 pm88 °FSunny.10 mph55%29.89 "HgN/A
1:30 pm86 °FSunny.10 mph59%29.89 "HgN/A
1:00 pm86 °FSunny.9 mph59%29.89 "HgN/A
12:30 pm86 °FSunny.9 mph59%29.92 "HgN/A
12:00 pm84 °FSunny.8 mph62%29.95 "HgN/A
11:30 am84 °FSunny.8 mph66%29.95 "HgN/A
11:00 am82 °FSunny.7 mph74%29.95 "HgN/A
10:30 am81 °FSunny.10 mph74%29.95 "HgN/A
9:30 am79 °FSunny.7 mph74%29.98 "HgN/A
8:30 am77 °FSunny.8 mph79%29.95 "HgN/A
8:00 am73 °FSunny.6 mph69%29.95 "HgN/A
Weather by CustomWeather, © 2024

See weather overview